| time (UTC) | temp F | wind direction | speed MPH | gust MPH | rain 1hr in | rain 24hr in | rain mn in | humidity % | barometer mb |
| 20260906052742 | 62 | 173 | 6.0 | 13.0 | 0.00 | 0.03 | 0.02 | 93 | 1016.9 |
| 20260906052242 | 62 | 167 | 5.0 | 10.0 | 0.00 | 0.03 | 0.02 | 93 | 1017.0 |
| 20260906051244 | 62 | 173 | 4.0 | 12.0 | 0.00 | 0.03 | 0.02 | 93 | 1017.0 |
| 20260906050741 | 62 | 170 | 6.0 | 12.0 | 0.00 | 0.03 | 0.02 | 93 | 1017.1 |
| 20260906050242 | 62 | 161 | 7.0 | 13.0 | 0.00 | 0.03 | 0.02 | 93 | 1017.1 |
| 20260906045743 | 62 | 167 | 5.0 | 14.0 | 0.00 | 0.03 | 0.02 | 94 | 1017.2 |
| 20260906045242 | 62 | 179 | 6.0 | 13.0 | 0.00 | 0.03 | 0.02 | 94 | 1017.1 |
| 20260906044242 | 62 | 157 | 7.0 | 12.0 | 0.00 | 0.03 | 0.02 | 95 | 1017.2 |
| 20260906043742 | 62 | 164 | 6.0 | 10.0 | 0.00 | 0.03 | 0.02 | 95 | 1017.2 |
| 20260906043243 | 62 | 153 | 5.0 | 13.0 | 0.00 | 0.03 | 0.02 | 95 | 1017.2 |
| 20260906041743 | 62 | 156 | 7.0 | 10.0 | 0.00 | 0.03 | 0.02 | 96 | 1017.2 |
| 20260906041242 | 62 | 178 | 6.0 | 12.0 | 0.00 | 0.03 | 0.02 | 96 | 1017.2 |
| 20260906040743 | 63 | 178 | 5.0 | 12.0 | 0.00 | 0.03 | 0.02 | 96 | 1017.2 |
| 20260906040242 | 63 | 135 | 7.0 | 16.0 | 0.00 | 0.03 | 0.02 | 96 | 1017.3 |
| 20260906035742 | 63 | 159 | 6.0 | 10.0 | 0.00 | 0.03 | 0.02 | 96 | 1017.3 |
| 20260906034243 | 63 | 172 | 7.0 | 14.0 | 0.00 | 0.03 | 0.02 | 96 | 1017.5 |
| 20260906033743 | 63 | 177 | 4.0 | 10.0 | 0.00 | 0.03 | 0.02 | 96 | 1017.6 |
| 20260906033243 | 63 | 165 | 6.0 | 9.0 | 0.00 | 0.03 | 0.02 | 96 | 1017.6 |
| 20260906032744 | 63 | 167 | 5.0 | 9.0 | 0.00 | 0.03 | 0.02 | 96 | 1017.6 |
| 20260906032243 | 63 | 146 | 5.0 | 8.0 | 0.00 | 0.03 | 0.02 | 96 | 1017.7 |
| 20260906031244 | 63 | 171 | 6.0 | 9.0 | 0.00 | 0.03 | 0.02 | 96 | 1017.8 |
| 20260906030744 | 63 | 180 | 4.0 | 8.0 | 0.00 | 0.03 | 0.02 | 96 | 1017.9 |
| 20260906030243 | 63 | 175 | 6.0 | 9.0 | 0.00 | 0.03 | 0.02 | 97 | 1017.9 |
| 20260906025244 | 63 | 163 | 5.0 | 9.0 | 0.00 | 0.03 | 0.02 | 97 | 1018.0 |
| 20260906024744 | 63 | 177 | 5.0 | 14.0 | 0.00 | 0.03 | 0.02 | 97 | 1018.0 |
| 20260906024244 | 63 | 157 | 7.0 | 13.0 | 0.00 | 0.03 | 0.02 | 97 | 1018.1 |
| 20260906023243 | 63 | 166 | 8.0 | 12.0 | 0.00 | 0.03 | 0.02 | 97 | 1018.2 |
| 20260906022243 | 63 | 165 | 7.0 | 14.0 | 0.00 | 0.03 | 0.02 | 97 | 1018.2 |
| 20260906021744 | 63 | 180 | 7.0 | 13.0 | 0.00 | 0.03 | 0.02 | 97 | 1018.3 |
| 20260906021245 | 63 | 156 | 6.0 | 12.0 | 0.00 | 0.03 | 0.02 | 97 | 1018.4 |
| 20260906020745 | 63 | 177 | 6.0 | 13.0 | 0.00 | 0.03 | 0.02 | 97 | 1018.5 |
| 20260906020244 | 63 | 179 | 2.0 | 12.0 | 0.00 | 0.03 | 0.02 | 97 | 1018.6 |
| 20260906015744 | 63 | 173 | 5.0 | 10.0 | 0.00 | 0.03 | 0.02 | 97 | 1018.7 |
| 20260906015245 | 63 | 172 | 3.0 | 10.0 | 0.00 | 0.03 | 0.02 | 97 | 1018.7 |
| 20260906014743 | 63 | 176 | 5.0 | 12.0 | 0.01 | 0.03 | 0.02 | 97 | 1018.7 |
| 20260906014244 | 63 | 181 | 4.0 | 13.0 | 0.01 | 0.03 | 0.02 | 96 | 1018.7 |
| 20260906013745 | 63 | 185 | 4.0 | 10.0 | 0.01 | 0.03 | 0.02 | 97 | 1018.9 |
| 20260906013244 | 63 | 167 | 5.0 | 10.0 | 0.01 | 0.03 | 0.02 | 96 | 1019.0 |
| 20260906012743 | 63 | 194 | 3.0 | 7.0 | 0.01 | 0.03 | 0.02 | 96 | 1019.1 |
| 20260906012244 | 63 | 179 | 3.0 | 9.0 | 0.01 | 0.03 | 0.02 | 97 | 1019.1 |
| 20260906011744 | 63 | 154 | 5.0 | 12.0 | 0.01 | 0.03 | 0.02 | 97 | 1019.0 |
| 20260906010744 | 62 | 182 | 5.0 | 9.0 | 0.01 | 0.03 | 0.02 | 96 | 1019.1 |
| 20260906010244 | 62 | 165 | 5.0 | 9.0 | 0.02 | 0.03 | 0.02 | 96 | 1019.3 |
| 20260906005744 | 62 | 158 | 5.0 | 9.0 | 0.02 | 0.03 | 0.02 | 96 | 1019.3 |
| 20260906005245 | 62 | 174 | 6.0 | 12.0 | 0.02 | 0.03 | 0.02 | 96 | 1019.4 |
| 20260906004744 | 62 | 173 | 5.0 | 10.0 | 0.01 | 0.02 | 0.02 | 96 | 1019.5 |
| 20260906004245 | 62 | 178 | 2.0 | 10.0 | 0.01 | 0.02 | 0.02 | 97 | 1019.6 |
| 20260906003244 | 62 | 162 | 6.0 | 10.0 | 0.01 | 0.02 | 0.02 | 97 | 1019.8 |
| 20260906002745 | 62 | 170 | 3.0 | 8.0 | 0.01 | 0.02 | 0.02 | 97 | 1019.9 |
| 20260906002244 | 62 | 182 | 4.0 | 13.0 | 0.01 | 0.02 | 0.02 | 97 | 1020.0 |
| 20260906001744 | 62 | 174 | 4.0 | 10.0 | 0.01 | 0.02 | 0.02 | 97 | 1020.1 |
| 20260906001245 | 62 | 180 | 5.0 | 10.0 | 0.01 | 0.02 | 0.02 | 97 | 1020.2 |
| 20260906000745 | 62 | 189 | 4.0 | 8.0 | 0.01 | 0.02 | 0.02 | 97 | 1020.3 |
| 20260906000244 | 62 | 169 | 3.0 | 9.0 | 0.01 | 0.02 | 0.01 | 97 | 1020.4 |
| 20260905235245 | 62 | 191 | 3.0 | 6.0 | 0.00 | 0.02 | 0.01 | 97 | 1020.4 |
| 20260905234745 | 62 | 174 | 3.0 | 7.0 | 0.00 | 0.02 | 0.01 | 97 | 1020.4 |
| 20260905234244 | 62 | 183 | 5.0 | 13.0 | 0.00 | 0.02 | 0.01 | 96 | 1020.3 |
| 20260905233746 | 62 | 186 | 3.0 | 9.0 | 0.00 | 0.02 | 0.01 | 96 | 1020.4 |
| 20260905233245 | 62 | 183 | 3.0 | 8.0 | 0.00 | 0.02 | 0.01 | 96 | 1020.4 |
| 20260905232745 | 62 | 178 | 3.0 | 8.0 | 0.00 | 0.02 | 0.01 | 96 | 1020.6 |
| 20260905232245 | 62 | 193 | 6.0 | 12.0 | 0.00 | 0.02 | 0.01 | 96 | 1020.6 |
| 20260905231246 | 62 | 174 | 3.0 | 7.0 | 0.01 | 0.02 | 0.01 | 96 | 1020.7 |
| 20260905230246 | 62 | 159 | 3.0 | 6.0 | 0.00 | 0.01 | 0.00 | 96 | 1020.8 |
| 20260905225246 | 62 | 163 | 1.0 | 5.0 | 0.01 | 0.01 | 0.01 | 96 | 1020.8 |
| 20260905224746 | 62 | 163 | 3.0 | 6.0 | 0.01 | 0.01 | 0.01 | 96 | 1020.9 |
| 20260905224245 | 62 | 162 | 3.0 | 8.0 | 0.01 | 0.01 | 0.01 | 96 | 1020.9 |
| 20260905223745 | 62 | 164 | 2.0 | 7.0 | 0.01 | 0.01 | 0.01 | 96 | 1020.9 |
| 20260905223245 | 62 | 140 | 1.0 | 5.0 | 0.01 | 0.01 | 0.01 | 96 | 1020.9 |
| 20260905222747 | 62 | 144 | 2.0 | 5.0 | 0.01 | 0.01 | 0.01 | 96 | 1020.9 |
| 20260905222245 | 62 | 145 | 2.0 | 6.0 | 0.01 | 0.01 | 0.01 | 96 | 1021.0 |
| 20260905221746 | 62 | 185 | 2.0 | 6.0 | 0.01 | 0.01 | 0.01 | 96 | 1021.0 |
| 20260905221246 | 62 | 160 | 3.0 | 10.0 | 0.00 | 0.00 | 0.00 | 96 | 1021.1 |
| 20260905220746 | 62 | 167 | 2.0 | 6.0 | 0.00 | 0.00 | 0.00 | 96 | 1021.1 |
| 20260905220245 | 62 | 142 | 4.0 | 10.0 | 0.00 | 0.00 | 0.00 | 96 | 1021.2 |
| 20260905215747 | 62 | 174 | 6.0 | 13.0 | 0.00 | 0.00 | 0.00 | 96 | 1021.2 |
| 20260905215246 | 62 | 180 | 5.0 | 9.0 | 0.00 | 0.00 | 0.00 | 96 | 1021.2 |
| 20260905214745 | 62 | 161 | 4.0 | 8.0 | 0.00 | 0.00 | 0.00 | 96 | 1021.2 |
| 20260905213745 | 62 | 168 | 4.0 | 7.0 | 0.00 | 0.00 | 0.00 | 95 | 1021.1 |
| 20260905213246 | 62 | 172 | 4.0 | 7.0 | 0.00 | 0.00 | 0.00 | 95 | 1021.3 |
| 20260905212246 | 62 | 174 | 4.0 | 8.0 | 0.00 | 0.00 | 0.00 | 95 | 1021.3 |
| 20260905211745 | 62 | 141 | 3.0 | 6.0 | 0.00 | 0.00 | 0.00 | 95 | 1021.4 |
| 20260905211246 | 62 | 144 | 2.0 | 5.0 | 0.00 | 0.00 | 0.00 | 95 | 1021.4 |
| 20260905210746 | 62 | 158 | 2.0 | 6.0 | 0.00 | 0.00 | 0.00 | 95 | 1021.5 |
| 20260905210246 | 62 | 161 | 2.0 | 6.0 | 0.00 | 0.00 | 0.00 | 95 | 1021.6 |
| 20260905205746 | 62 | 165 | 4.0 | 7.0 | 0.00 | 0.00 | 0.00 | 95 | 1021.6 |
| 20260905204246 | 62 | 179 | 5.0 | 7.0 | 0.00 | 0.00 | 0.00 | 95 | 1021.6 |
| 20260905203746 | 62 | 169 | 5.0 | 9.0 | 0.00 | 0.00 | 0.00 | 95 | 1021.5 |
| 20260905203247 | 62 | 179 | 5.0 | 8.0 | 0.00 | 0.00 | 0.00 | 94 | 1021.6 |
| 20260905202746 | 62 | 178 | 3.0 | 6.0 | 0.00 | 0.00 | 0.00 | 94 | 1021.6 |
| 20260905202247 | 62 | 159 | 2.0 | 3.0 | 0.00 | 0.00 | 0.00 | 94 | 1021.7 |
| 20260905201748 | 62 | 172 | 1.0 | 5.0 | 0.00 | 0.00 | 0.00 | 94 | 1021.7 |
| 20260905200246 | 62 | 180 | 2.0 | 6.0 | 0.00 | 0.00 | 0.00 | 92 | 1021.7 |
| 20260905195747 | 62 | 159 | 3.0 | 6.0 | 0.00 | 0.00 | 0.00 | 91 | 1021.6 |
| 20260905195247 | 63 | 200 | 1.0 | 6.0 | 0.00 | 0.00 | 0.00 | 90 | 1021.7 |
| 20260905194746 | 63 | 229 | 1.0 | 5.0 | 0.00 | 0.00 | 0.00 | 89 | 1021.7 |
| 20260905194247 | 63 | 336 | 1.0 | 7.0 | 0.00 | 0.00 | 0.00 | 88 | 1021.7 |
| 20260905193247 | 63 | 187 | 3.0 | 8.0 | 0.00 | 0.00 | 0.00 | 86 | 1021.6 |
| 20260905192747 | 63 | 180 | 2.0 | 6.0 | 0.00 | 0.00 | 0.00 | 86 | 1021.5 |
| 20260905192247 | 63 | 174 | 2.0 | 6.0 | 0.00 | 0.00 | 0.00 | 86 | 1021.6 |
| 20260905191246 | 63 | 184 | 3.0 | 6.0 | 0.00 | 0.00 | 0.00 | 86 | 1021.5 |
| 20260905190248 | 63 | 158 | 2.0 | 6.0 | 0.00 | 0.00 | 0.00 | 86 | 1021.6 |
| 20260905185746 | 63 | 171 | 3.0 | 6.0 | 0.00 | 0.00 | 0.00 | 86 | 1021.6 |
| 20260905185247 | 63 | 174 | 2.0 | 5.0 | 0.00 | 0.00 | 0.00 | 86 | 1021.7 |
| 20260905184747 | 63 | 168 | 5.0 | 8.0 | 0.00 | 0.00 | 0.00 | 86 | 1021.7 |
| 20260905184247 | 63 | 178 | 3.0 | 8.0 | 0.00 | 0.00 | 0.00 | 86 | 1021.6 |
| 20260905183247 | 63 | 185 | 5.0 | 7.0 | 0.00 | 0.00 | 0.00 | 86 | 1021.7 |
| 20260905182748 | 63 | 170 | 5.0 | 8.0 | 0.00 | 0.00 | 0.00 | 86 | 1021.6 |
| 20260905181748 | 63 | 152 | 5.0 | 9.0 | 0.00 | 0.00 | 0.00 | 86 | 1021.7 |
| 20260905181248 | 63 | 153 | 2.0 | 7.0 | 0.00 | 0.00 | 0.00 | 85 | 1021.7 |
| 20260905180747 | 63 | 176 | 5.0 | 10.0 | 0.00 | 0.00 | 0.00 | 85 | 1021.6 |
| 20260905180248 | 63 | 163 | 5.0 | 10.0 | 0.00 | 0.00 | 0.00 | 85 | 1021.7 |
| 20260905175748 | 63 | 132 | 5.0 | 8.0 | 0.00 | 0.00 | 0.00 | 84 | 1021.6 |
| 20260905175249 | 63 | 156 | 6.0 | 7.0 | 0.00 | 0.00 | 0.00 | 84 | 1021.7 |
| 20260905174747 | 63 | 170 | 5.0 | 10.0 | 0.00 | 0.00 | 0.00 | 83 | 1021.7 |
| 20260905174248 | 63 | 170 | 5.0 | 9.0 | 0.00 | 0.00 | 0.00 | 83 | 1021.8 |
| 20260905173248 | 63 | 149 | 3.0 | 8.0 | 0.00 | 0.00 | 0.00 | 83 | 1021.9 |
| 20260905172747 | 63 | 150 | 4.0 | 7.0 | 0.00 | 0.00 | 0.00 | 82 | 1021.9 |
| 20260905172248 | 63 | 136 | 4.0 | 6.0 | 0.00 | 0.00 | 0.00 | 82 | 1021.9 |
| 20260905171748 | 63 | 150 | 3.0 | 7.0 | 0.00 | 0.00 | 0.00 | 82 | 1021.9 |
| 20260905171248 | 63 | 149 | 5.0 | 7.0 | 0.00 | 0.00 | 0.00 | 82 | 1021.9 |
| 20260905170747 | 63 | 178 | 3.0 | 8.0 | 0.00 | 0.00 | 0.00 | 81 | 1022.0 |
| 20260905165748 | 63 | 182 | 6.0 | 12.0 | 0.00 | 0.00 | 0.00 | 80 | 1022.0 |
| 20260905164747 | 64 | 175 | 3.0 | 10.0 | 0.00 | 0.00 | 0.00 | 80 | 1022.1 |
| 20260905164248 | 64 | 168 | 3.0 | 7.0 | 0.00 | 0.00 | 0.00 | 80 | 1022.1 |
| 20260905163749 | 64 | 309 | 0.0 | 6.0 | 0.00 | 0.00 | 0.00 | 80 | 1022.3 |
| 20260905163248 | 63 | 167 | 7.0 | 10.0 | 0.00 | 0.00 | 0.00 | 80 | 1022.3 |
| 20260905162749 | 64 | 173 | 1.0 | 9.0 | 0.00 | 0.00 | 0.00 | 80 | 1022.4 |
| 20260905162249 | 64 | 176 | 7.0 | 10.0 | 0.00 | 0.00 | 0.00 | 79 | 1022.4 |
| 20260905161749 | 64 | 166 | 7.0 | 17.0 | 0.00 | 0.00 | 0.00 | 79 | 1022.5 |
| 20260905161249 | 64 | 202 | 3.0 | 9.0 | 0.00 | 0.00 | 0.00 | 78 | 1022.5 |
| 20260905160748 | 64 | 174 | 3.0 | 7.0 | 0.00 | 0.00 | 0.00 | 78 | 1022.6 |
| 20260905160249 | 64 | 169 | 3.0 | 8.0 | 0.00 | 0.00 | 0.00 | 78 | 1022.6 |
| 20260905155749 | 65 | 197 | 6.0 | 10.0 | 0.00 | 0.00 | 0.00 | 77 | 1022.6 |
| 20260905155248 | 65 | 185 | 4.0 | 10.0 | 0.00 | 0.00 | 0.00 | 77 | 1022.6 |
| 20260905154248 | 64 | 187 | 7.0 | 12.0 | 0.00 | 0.00 | 0.00 | 77 | 1022.7 |
| 20260905153749 | 64 | 157 | 7.0 | 13.0 | 0.00 | 0.00 | 0.00 | 76 | 1022.7 |
| 20260905153250 | 65 | 171 | 7.0 | 12.0 | 0.00 | 0.00 | 0.00 | 76 | 1022.8 |
| 20260905152749 | 65 | 157 | 9.0 | 14.0 | 0.00 | 0.00 | 0.00 | 75 | 1022.8 |
| 20260905152249 | 65 | 166 | 6.0 | 9.0 | 0.00 | 0.00 | 0.00 | 75 | 1022.7 |
| 20260905151248 | 65 | 168 | 5.0 | 12.0 | 0.00 | 0.00 | 0.00 | 75 | 1022.8 |
| 20260905150749 | 65 | 193 | 7.0 | 15.0 | 0.00 | 0.00 | 0.00 | 75 | 1022.7 |
| 20260905150250 | 66 | 206 | 2.0 | 9.0 | 0.00 | 0.00 | 0.00 | 74 | 1022.9 |
| 20260905145750 | 66 | 193 | 3.0 | 8.0 | 0.00 | 0.00 | 0.00 | 74 | 1023.0 |
| 20260905145249 | 65 | 282 | 2.0 | 6.0 | 0.00 | 0.00 | 0.00 | 73 | 1023.0 |
| 20260905144749 | 65 | 206 | 3.0 | 8.0 | 0.00 | 0.00 | 0.00 | 73 | 1023.0 |
| 20260905144251 | 65 | 339 | 1.0 | 5.0 | 0.00 | 0.00 | 0.00 | 74 | 1023.1 |
| 20260905143753 | 65 | 196 | 3.0 | 7.0 | 0.00 | 0.00 | 0.00 | 75 | 1023.2 |
| 20260905142902 | 65 | 176 | 7.0 | 9.0 | 0.00 | 0.00 | 0.00 | 74 | 1023.3 |
| 20260905142252 | 65 | 159 | 6.0 | 12.0 | 0.00 | 0.00 | 0.00 | 75 | 1023.3 |
| 20260905141254 | 66 | 172 | 3.0 | 10.0 | 0.00 | 0.00 | 0.00 | 73 | 1023.4 |
| 20260905140749 | 66 | 162 | 5.0 | 9.0 | 0.00 | 0.00 | 0.00 | 73 | 1023.4 |
| 20260905140250 | 66 | 200 | 2.0 | 6.0 | 0.00 | 0.00 | 0.00 | 72 | 1023.5 |
| 20260905135751 | 66 | 200 | 2.0 | 7.0 | 0.00 | 0.00 | 0.00 | 73 | 1023.5 |
| 20260905135249 | 66 | 283 | 2.0 | 8.0 | 0.00 | 0.00 | 0.00 | 71 | 1023.5 |
| 20260905134750 | 66 | 282 | 1.0 | 6.0 | 0.00 | 0.00 | 0.00 | 72 | 1023.6 |
| 20260905134250 | 66 | 323 | 5.0 | 12.0 | 0.00 | 0.00 | 0.00 | 72 | 1023.7 |
| 20260905133751 | 66 | 332 | 1.0 | 6.0 | 0.00 | 0.00 | 0.00 | 72 | 1023.7 |
| 20260905133250 | 65 | 207 | 5.0 | 8.0 | 0.00 | 0.00 | 0.00 | 73 | 1023.7 |
| 20260905132750 | 65 | 195 | 1.0 | 7.0 | 0.00 | 0.00 | 0.00 | 72 | 1023.7 |
| 20260905132251 | 65 | 171 | 6.0 | 9.0 | 0.00 | 0.00 | 0.00 | 72 | 1023.7 |
| 20260905131749 | 66 | 215 | 3.0 | 9.0 | 0.00 | 0.00 | 0.00 | 73 | 1023.6 |
| 20260905131250 | 66 | 197 | 5.0 | 10.0 | 0.00 | 0.00 | 0.00 | 71 | 1023.6 |
| 20260905130750 | 66 | 161 | 2.0 | 6.0 | 0.00 | 0.00 | 0.00 | 71 | 1023.6 |
| 20260905130250 | 66 | 147 | 3.0 | 10.0 | 0.00 | 0.00 | 0.00 | 71 | 1023.6 |
| 20260905125751 | 67 | 156 | 7.0 | 10.0 | 0.00 | 0.00 | 0.00 | 70 | 1023.6 |
| 20260905124750 | 67 | 174 | 2.0 | 7.0 | 0.00 | 0.00 | 0.00 | 70 | 1023.6 |
| 20260905124251 | 67 | 284 | 2.0 | 8.0 | 0.00 | 0.00 | 0.00 | 69 | 1023.6 |
| 20260905123750 | 67 | 187 | 6.0 | 12.0 | 0.00 | 0.00 | 0.00 | 70 | 1023.5 |
| 20260905123250 | 67 | 266 | 3.0 | 6.0 | 0.00 | 0.00 | 0.00 | 67 | 1023.5 |
| 20260905122750 | 67 | 283 | 2.0 | 9.0 | 0.00 | 0.00 | 0.00 | 69 | 1023.5 |
| 20260905122250 | 67 | 321 | 2.0 | 9.0 | 0.00 | 0.00 | 0.00 | 66 | 1023.5 |
| 20260905121250 | 67 | 173 | 2.0 | 10.0 | 0.00 | 0.00 | 0.00 | 68 | 1023.5 |
| 20260905120750 | 67 | 160 | 5.0 | 9.0 | 0.00 | 0.00 | 0.00 | 69 | 1023.4 |
| 20260905120251 | 67 | 76 | 3.0 | 7.0 | 0.00 | 0.00 | 0.00 | 68 | 1023.4 |
| 20260905115751 | 67 | 183 | 5.0 | 9.0 | 0.00 | 0.00 | 0.00 | 68 | 1023.4 |
| 20260905115251 | 67 | 179 | 3.0 | 7.0 | 0.00 | 0.00 | 0.00 | 66 | 1023.4 |
| 20260905114751 | 67 | 261 | 4.0 | 8.0 | 0.00 | 0.00 | 0.00 | 64 | 1023.5 |
| 20260905114251 | 67 | 330 | 2.0 | 6.0 | 0.00 | 0.00 | 0.00 | 66 | 1023.4 |
| 20260905113751 | 67 | 259 | 1.0 | 5.0 | 0.00 | 0.00 | 0.00 | 64 | 1023.5 |
| 20260905113252 | 66 | 214 | 1.0 | 6.0 | 0.00 | 0.00 | 0.00 | 65 | 1023.4 |
| 20260905112751 | 66 | 347 | 2.0 | 8.0 | 0.00 | 0.00 | 0.00 | 65 | 1023.5 |
| 20260905112251 | 66 | 198 | 2.0 | 6.0 | 0.00 | 0.00 | 0.00 | 65 | 1023.5 |
| 20260905111751 | 66 | 309 | 2.0 | 6.0 | 0.00 | 0.00 | 0.00 | 66 | 1023.4 |
| 20260905111251 | 66 | 304 | 3.0 | 7.0 | 0.00 | 0.00 | 0.00 | 66 | 1023.5 |
| 20260905110752 | 66 | 165 | 6.0 | 10.0 | 0.00 | 0.00 | 0.00 | 66 | 1023.4 |
| 20260905110250 | 66 | 296 | 2.0 | 6.0 | 0.00 | 0.00 | 0.00 | 65 | 1023.4 |
| 20260905105750 | 66 | 303 | 3.0 | 7.0 | 0.00 | 0.00 | 0.00 | 65 | 1023.4 |
| 20260905105250 | 66 | 221 | 1.0 | 6.0 | 0.00 | 0.00 | 0.00 | 67 | 1023.4 |
| 20260905104751 | 65 | 179 | 1.0 | 7.0 | 0.00 | 0.00 | 0.00 | 68 | 1023.4 |
| 20260905104251 | 65 | 307 | 1.0 | 6.0 | 0.00 | 0.00 | 0.00 | 68 | 1023.4 |
| 20260905103751 | 64 | 205 | 1.0 | 6.0 | 0.00 | 0.00 | 0.00 | 69 | 1023.5 |
| 20260905103251 | 63 | 301 | 1.0 | 5.0 | 0.00 | 0.00 | 0.00 | 68 | 1023.5 |
| 20260905102751 | 63 | 285 | 2.0 | 5.0 | 0.00 | 0.00 | 0.00 | 68 | 1023.5 |
| 20260905102251 | 63 | 270 | 2.0 | 3.0 | 0.00 | 0.00 | 0.00 | 69 | 1023.5 |
| 20260905101751 | 63 | 301 | 1.0 | 2.0 | 0.00 | 0.00 | 0.00 | 69 | 1023.4 |
| 20260905101253 | 63 | 283 | 1.0 | 3.0 | 0.00 | 0.00 | 0.00 | 67 | 1023.4 |
| 20260905100251 | 64 | 280 | 1.0 | 6.0 | 0.00 | 0.00 | 0.00 | 70 | 1023.4 |
| 20260905095752 | 63 | 299 | 1.0 | 2.0 | 0.00 | 0.00 | 0.00 | 71 | 1023.3 |
| 20260905094251 | 63 | 294 | 1.0 | 3.0 | 0.00 | 0.00 | 0.00 | 66 | 1023.2 |
| 20260905093251 | 63 | 219 | 1.0 | 3.0 | 0.00 | 0.00 | 0.00 | 68 | 1023.2 |
| 20260905092752 | 62 | 182 | 0.0 | 1.0 | 0.00 | 0.00 | 0.00 | 72 | 1023.2 |
| 20260905092253 | 62 | 285 | 1.0 | 5.0 | 0.00 | 0.00 | 0.00 | 69 | 1023.2 |
| 20260905091751 | 62 | 261 | 0.0 | 2.0 | 0.00 | 0.00 | 0.00 | 74 | 1023.2 |
| 20260905091251 | 61 | 318 | 1.0 | 2.0 | 0.00 | 0.00 | 0.00 | 76 | 1023.2 |
| 20260905090751 | 61 | 281 | 0.0 | 1.0 | 0.00 | 0.00 | 0.00 | 77 | 1023.2 |
| 20260905090251 | 60 | 262 | 0.0 | 2.0 | 0.00 | 0.00 | 0.00 | 77 | 1023.2 |
| 20260905085253 | 60 | 292 | 0.0 | 1.0 | 0.00 | 0.00 | 0.00 | 77 | 1023.1 |
| 20260905083753 | 60 | 304 | 0.0 | 0.0 | 0.00 | 0.00 | 0.00 | 77 | 1023.0 |
| 20260905083252 | 60 | 136 | 0.0 | 0.0 | 0.00 | 0.00 | 0.00 | 77 | 1023.0 |
| 20260905082753 | 60 | 217 | 0.0 | 0.0 | 0.00 | 0.00 | 0.00 | 77 | 1023.1 |
| 20260905082253 | 59 | 291 | 0.0 | 0.0 | 0.00 | 0.00 | 0.00 | 77 | 1023.1 |
| 20260905081751 | 59 | 307 | 0.0 | 0.0 | 0.00 | 0.00 | 0.00 | 77 | 1023.0 |
| 20260905081253 | 59 | 293 | 0.0 | 0.0 | 0.00 | 0.00 | 0.00 | 77 | 1023.0 |
| 20260905080752 | 59 | 286 | 0.0 | 2.0 | 0.00 | 0.00 | 0.00 | 78 | 1022.9 |
| 20260905075752 | 58 | 283 | 0.0 | 1.0 | 0.00 | 0.00 | 0.00 | 79 | 1022.7 |
| 20260905075253 | 58 | 271 | 0.0 | 1.0 | 0.00 | 0.00 | 0.00 | 80 | 1022.7 |
| 20260905074752 | 58 | 281 | 1.0 | 5.0 | 0.00 | 0.00 | 0.00 | 80 | 1022.7 |
| 20260905073754 | 57 | 270 | 0.0 | 2.0 | 0.00 | 0.00 | 0.00 | 82 | 1022.7 |
| 20260905073252 | 57 | 269 | 0.0 | 3.0 | 0.00 | 0.00 | 0.00 | 83 | 1022.6 |
| 20260905072753 | 57 | 292 | 0.0 | 1.0 | 0.00 | 0.00 | 0.00 | 83 | 1022.5 |
| 20260905071752 | 57 | 275 | 0.0 | 1.0 | 0.00 | 0.00 | 0.00 | 84 | 1022.5 |
| 20260905070752 | 56 | 295 | 0.0 | 0.0 | 0.00 | 0.00 | 0.00 | 84 | 1022.5 |
| 20260905070254 | 56 | 295 | 0.0 | 0.0 | 0.00 | 0.00 | 0.00 | 85 | 1022.5 |
| 20260905065253 | 56 | 277 | 0.0 | 1.0 | 0.00 | 0.00 | 0.00 | 85 | 1022.5 |
| 20260905064754 | 56 | 273 | 0.0 | 1.0 | 0.00 | 0.00 | 0.00 | 86 | 1022.4 |
| 20260905064253 | 56 | 302 | 1.0 | 3.0 | 0.00 | 0.00 | 0.00 | 86 | 1022.4 |
| 20260905063752 | 56 | 292 | 0.0 | 2.0 | 0.00 | 0.00 | 0.00 | 86 | 1022.4 |
| 20260905062753 | 56 | 295 | 1.0 | 5.0 | 0.00 | 0.00 | 0.00 | 86 | 1022.3 |
| 20260905062253 | 56 | 309 | 1.0 | 3.0 | 0.00 | 0.00 | 0.00 | 86 | 1022.3 |
| 20260905061752 | 56 | 282 | 2.0 | 5.0 | 0.00 | 0.00 | 0.00 | 86 | 1022.2 |
| 20260905055753 | 55 | 282 | 2.0 | 6.0 | 0.00 | 0.00 | 0.00 | 86 | 1022.1 |
| 20260905055254 | 55 | 284 | 0.0 | 2.0 | 0.00 | 0.00 | 0.00 | 85 | 1022.0 |
| 20260905054253 | 55 | 285 | 0.0 | 1.0 | 0.00 | 0.00 | 0.00 | 86 | 1022.0 |
| 20260905053753 | 55 | 279 | 0.0 | 3.0 | 0.00 | 0.00 | 0.00 | 86 | 1022.0 |